Theta_e
303 298 295 299 301 297 292 288 289 292 297 293 292 293 295 298 295 296 297 297 300 309 315 316 318 320 319 319 320 323 324 326 325 318 316 314 317 315 314 315 317 318 318 317
298 294 300 302 302 299 296 293 288 294 297 294 294 294 297 297 297 298 299 299 298 299 307 314 315 317 319 320 320 321 323 325 326 326 322 318 318 315 317 316 316 317 317 318
295 296 301 299 298 296 296 294 292 292 294 292 290 290 293 296 298 301 299 301 301 301 300 303 312 315 318 319 320 320 322 323 325 327 323 316 314 313 313 313 315 317 318 318
297 300 298 297 296 297 292 298 297 296 293 286 289 283 287 293 295 297 298 299 302 301 300 301 306 313 316 318 321 322 321 322 324 326 324 322 321 318 319 318 317 316 317 318
294 295 296 295 295 299 295 299 297 296 291 290 287 286 287 290 292 295 300 300 300 303 304 304 301 310 316 319 319 321 321 321 322 323 325 323 322 323 322 316 314 315 315 318
296 299 299 297 299 300 299 296 295 293 291 285 288 287 284 290 293 295 300 301 301 302 302 303 303 307 314 318 319 320 320 320 321 322 323 322 322 322 318 314 315 315 316 316
294 295 298 299 295 298 297 292 284 282 283 281 284 285 290 291 294 297 298 299 300 300 301 301 300 301 310 315 317 319 319 319 321 321 321 322 322 321 321 318 317 317 315 314
286 284 294 297 295 293 293 292 283 277 278 279 284 282 287 295 300 298 297 299 298 298 299 299 300 299 305 312 316 318 318 319 320 321 321 321 322 322 322 321 320 318 318 317
284 285 295 296 297 298 293 289 290 283 271 276 281 285 290 292 294 296 296 296 298 300 298 296 298 298 300 308 314 317 317 318 319 320 321 321 321 321 321 320 319 320 318 317
289 284 292 295 298 298 295 296 287 285 277 273 279 280 285 287 292 296 296 297 297 297 297 296 293 295 296 304 309 313 317 316 316 317 319 319 320 320 320 316 316 317 317 315
294 290 287 293 292 292 292 291 291 290 283 277 276 281 287 292 293 296 297 298 296 296 296 296 292 292 294 296 303 308 311 313 314 312 313 314 315 316 316 317 316 316 315 313
294 289 284 289 292 296 296 293 293 286 283 282 279 284 288 291 291 291 292 294 294 294 295 293 291 292 292 296 299 303 306 308 310 311 312 311 310 310 312 313 314 312 313 314
292 286 281 283 288 293 292 294 294 293 287 284 282 285 288 285 286 288 289 292 294 292 290 291 291 292 292 292 293 295 298 302 302 304 306 307 309 311 311 312 313 313 313 315
296 286 284 279 282 288 289 292 294 292 287 287 286 289 292 289 287 289 289 290 292 292 291 291 291 292 292 292 292 292 292 293 294 294 295 296 297 299 302 303 305 305 306 306
291 284 286 287 287 288 290 290 292 291 291 287 290 290 294 295 291 292 289 290 290 291 291 292 292 292 291 291 292 292 292 293 294 294 295 294 294 295 295 300 298 297 296 297
291 283 287 283 287 287 285 287 289 293 293 292 292 291 298 296 296 295 292 291 290 290 292 292 292 292 291 292 292 292 292 293 293 293 293 293 292 290 292 292 292 293 292 293
288 286 282 280 285 285 281 285 287 288 294 294 289 294 296 295 294 295 297 297 291 291 292 293 293 292 291 291 292 292 292 292 292 290 289 289 289 288 288 287 287 288 288 288
286 285 283 280 282 276 286 289 291 289 290 294 295 297 299 299 300 296 297 298 294 292 291 292 293 292 292 291 292 292 292 290 289 288 288 287 288 287 286 286 286 286 286 287
289 284 277 277 276 280 283 286 288 287 288 293 294 296 298 300 292 294 298 297 297 294 293 294 295 292 292 292 292 290 288 288 287 287 287 287 287 284 283 282 282 285 283 282
286 287 281 277 274 272 282 288 291 294 285 296 296 297 298 295 291 297 303 294 293 292 292 292 291 291 291 290 289 288 287 287 287 286 286 285 284 281 281 281 280 279 282 282
280 282 279 277 274 275 285 289 292 282 285 295 297 298 298 296 299 303 303 300 297 293 290 289 290 291 290 287 286 286 285 285 285 283 282 280 280 280 280 278 276 282 284 282
280 279 279 279 277 275 289 287 285 291 295 295 296 298 298 300 302 302 300 295 289 288 288 289 289 287 285 285 286 285 284 282 280 280 279 278 277 279 277 276 273 274 277 278
279 285 282 283 281 290 289 292 295 296 293 295 296 297 297 299 299 301 298 290 289 289 288 289 289 285 283 283 284 284 281 279 278 277 275 275 276 276 275 275 274 274 273 274
284 289 286 286 289 290 289 289 290 289 289 288 290 294 295 296 298 298 291 289 288 286 285 284 284 283 280 279 281 282 279 278 278 276 275 274 276 274 274 275 275 274 273 272
283 284 286 285 289 285 289 284 281 283 288 289 289 289 290 292 292 293 288 287 287 285 281 284 285 283 280 280 280 280 277 278 277 276 275 275 275 276 275 274 275 275 271 274
277 276 282 286 276 274 278 281 280 281 281 284 288 289 289 289 290 287 286 285 284 281 280 280 280 279 277 277 276 273 275 278 277 275 275 275 275 274 275 278 280 285 284 285
Wind_Speed
4 5 7 5 7 2 5 2 5 4 3 4 7 13 9 11 4 8 9 8 9 11 14 8 10 11 8 8 10 12 12 11 8 4 4 3 6 4 3 5 7 7 6 7
5 14 16 9 6 2 4 1 3 5 4 4 7 14 9 8 8 11 12 13 12 7 7 8 9 10 13 12 13 13 13 12 11 8 6 4 4 4 3 4 6 7 8 8
7 2 10 7 5 6 5 6 3 4 6 4 5 12 11 7 9 11 9 12 10 13 13 10 10 14 13 15 17 14 15 14 13 13 5 3 2 1 3 3 5 8 10 9
9 5 14 10 15 15 16 8 9 6 3 5 1 12 8 6 10 10 10 11 16 13 10 12 11 11 15 18 14 15 15 15 13 14 11 14 11 11 9 8 7 7 10 10
6 8 13 12 8 12 4 7 6 2 3 3 5 6 7 1 6 9 13 12 14 17 15 16 14 16 16 14 15 15 14 14 14 14 15 11 13 10 7 4 6 7 7 10
4 1 11 7 7 13 7 5 3 3 0 11 11 8 6 9 9 8 17 12 12 13 12 13 11 10 11 12 11 12 15 16 14 14 15 16 16 13 7 5 7 6 7 6
5 6 2 5 6 4 6 9 3 4 6 11 2 9 19 7 9 14 13 13 12 10 9 10 10 9 12 14 14 13 16 16 16 16 16 18 17 13 14 11 10 9 6 5
10 8 19 9 7 5 18 9 6 8 6 4 3 11 9 13 18 11 10 11 7 8 8 10 11 9 10 12 14 15 16 16 16 17 18 16 16 11 11 11 8 8 9 9
7 11 4 5 7 14 6 13 1 3 2 2 6 10 9 11 12 13 16 11 15 14 9 10 9 9 9 9 13 15 15 15 14 16 14 14 13 14 12 12 9 9 8 7
3 3 6 7 4 9 13 9 4 2 5 6 7 7 14 1 10 15 13 15 14 8 8 8 7 7 7 8 7 8 10 13 13 13 11 11 12 13 12 7 10 11 9 7
3 1 2 9 15 18 7 10 6 5 5 5 6 10 10 15 15 18 17 15 9 8 9 9 8 5 5 6 8 8 9 9 9 10 10 10 10 10 8 10 9 10 7 8
11 3 4 10 4 9 16 15 15 6 17 5 1 16 4 8 7 5 11 8 7 8 9 7 7 6 4 4 5 7 6 7 7 7 7 9 7 7 8 8 7 6 7 6
13 9 9 3 2 2 15 20 18 21 2 15 11 22 4 2 5 8 11 10 8 6 5 6 6 7 7 5 4 4 4 5 3 3 4 3 3 4 5 4 3 2 4 5
10 5 10 18 4 5 10 16 21 19 13 23 19 32 21 7 4 9 10 9 8 7 8 7 6 7 6 5 5 5 5 5 5 5 5 5 5 5 4 4 5 5 4 4
4 7 13 17 12 10 9 13 24 25 28 19 33 28 39 18 8 10 6 7 5 8 8 9 8 7 6 6 6 6 5 6 6 7 6 5 5 5 6 6 4 4 4 4
2 8 4 17 19 21 26 23 20 24 29 24 33 30 38 7 11 14 12 9 10 10 12 9 8 9 10 9 7 6 6 6 5 6 6 6 6 6 5 5 5 6 5 5
3 3 6 24 11 13 17 30 31 24 22 22 30 42 11 16 13 14 17 18 13 13 13 12 11 9 9 9 9 8 8 6 7 7 6 6 7 7 6 6 6 6 6 5
8 14 5 6 3 21 12 2 20 30 31 26 32 39 29 25 20 11 15 19 15 14 10 10 9 8 7 5 5 6 6 6 7 6 6 6 6 6 6 6 6 5 3 4
12 4 3 7 13 12 20 11 10 16 32 30 28 35 40 30 3 18 24 17 21 16 14 14 11 7 7 9 7 7 6 6 7 6 6 6 6 5 5 6 5 4 5 4
15 14 7 3 8 14 16 25 5 6 20 26 27 36 42 7 12 32 20 11 16 13 11 13 12 7 8 6 8 8 7 7 6 6 5 5 5 4 4 5 4 2 4 5
6 8 17 16 10 8 17 27 6 17 21 31 18 29 25 17 25 37 12 18 17 13 11 9 11 13 11 9 9 8 7 7 6 6 6 6 5 7 6 5 2 3 6 7
12 8 8 11 9 17 16 3 19 25 29 28 19 27 29 29 35 34 16 12 10 11 12 13 13 9 8 9 10 9 8 7 7 7 7 6 6 5 5 8 3 5 6 6
13 13 10 14 11 17 8 11 17 15 15 16 24 20 11 18 25 26 17 11 12 14 12 12 15 13 8 8 9 11 8 10 10 9 7 6 6 5 5 7 6 4 4 5
7 15 17 13 24 22 13 9 8 3 7 7 9 13 7 13 16 14 9 10 11 11 13 11 14 14 11 7 7 7 10 10 10 10 8 5 9 8 7 5 4 4 4 5
5 0 14 13 20 10 11 5 10 17 15 10 8 5 9 10 10 8 7 10 12 13 8 12 14 13 12 10 9 9 10 11 11 10 8 7 6 8 8 5 5 6 2 4
4 4 5 10 7 6 11 13 23 13 16 16 14 11 9 6 10 5 6 8 12 13 12 10 10 12 11 10 10 7 8 11 13 11 8 7 8 6 6 9 9 14 12 14
Wind_Direction
173 163 209 205 212 63 126 211 202 243 263 191 236 254 247 266 227 253 259 258 240 229 249 203 209 209 199 193 195 196 191 197 178 167 173 190 212 207 205 207 207 201 196 193
137 217 192 140 107 303 123 209 274 290 265 195 274 269 244 247 244 225 228 245 244 238 232 225 207 198 207 205 203 204 202 194 195 197 194 175 170 205 202 191 206 202 200 202
175 153 150 181 177 243 267 228 234 242 331 284 316 271 259 241 240 245 229 232 239 231 234 229 208 204 203 208 207 202 203 202 198 199 168 124 106 140 166 188 204 211 208 208
231 177 167 180 214 194 224 187 223 242 314 250 122 285 255 219 237 257 249 225 236 234 232 231 213 208 203 215 208 206 200 199 201 194 194 205 214 219 218 212 208 199 201 208
202 169 171 188 178 182 233 159 189 196 188 321 242 284 269 254 244 250 251 238 223 231 230 233 213 214 210 208 202 204 199 201 199 196 202 204 219 225 225 188 187 204 200 208
203 184 172 181 156 176 133 95 84 79 193 253 233 210 207 218 200 239 240 237 227 227 227 235 228 213 209 206 197 193 195 205 196 194 201 206 215 216 201 190 204 204 207 200
198 191 295 140 130 115 185 143 167 209 194 242 262 195 248 273 243 224 234 236 234 218 226 232 227 207 210 198 195 189 192 201 196 196 200 209 215 210 213 204 209 208 201 203
206 202 198 188 201 184 198 186 174 198 197 245 136 235 250 225 233 244 242 249 257 243 225 221 232 222 218 208 198 195 195 201 195 198 206 208 211 212 217 214 207 211 211 210
179 233 127 182 169 163 163 215 154 79 90 40 220 281 285 237 252 247 257 252 253 244 218 227 229 218 213 206 203 199 198 205 197 200 205 209 209 214 218 213 203 212 213 208
200 279 179 180 135 222 188 126 174 150 186 248 251 258 239 211 244 254 254 252 250 249 227 220 228 228 214 209 205 199 202 201 201 199 200 203 206 210 216 192 208 211 217 209
93 227 360 135 204 196 172 188 196 153 182 219 258 256 210 213 220 235 247 257 280 249 231 208 206 223 219 201 192 192 193 192 192 187 193 196 200 202 200 206 212 213 202 194
179 177 209 220 13 205 220 218 197 195 215 244 351 268 160 224 266 271 283 290 262 232 241 216 189 194 207 213 201 199 189 191 193 182 181 198 196 193 205 217 223 199 211 205
171 221 249 260 328 198 216 216 223 228 359 228 229 259 79 353 316 276 271 270 272 263 212 178 189 191 195 193 180 175 173 193 174 156 169 157 166 179 197 199 199 206 223 224
160 191 214 228 235 145 212 216 222 219 233 242 234 260 242 296 307 301 285 277 278 235 224 201 192 195 189 182 161 148 134 140 139 139 147 161 173 170 161 134 124 124 130 123
201 248 234 252 264 270 282 243 220 223 233 230 246 248 264 242 248 258 281 286 287 262 228 215 198 191 182 173 168 152 148 151 147 139 140 144 136 127 122 142 122 112 91 94
249 240 202 257 258 254 265 263 253 245 235 237 250 257 257 241 229 253 252 239 237 226 227 231 206 185 191 188 183 170 161 157 145 139 139 135 127 117 117 119 118 113 115 118
202 226 201 255 250 257 250 236 237 245 249 248 244 245 280 256 226 226 246 255 235 227 221 221 207 195 196 188 177 180 166 146 145 141 147 146 142 138 143 141 135 140 151 155
184 198 203 285 242 236 254 313 237 234 238 227 238 253 259 255 249 243 239 245 238 227 204 204 215 207 203 166 150 126 137 142 141 144 151 153 149 142 152 150 145 115 92 105
218 168 232 211 245 307 305 263 210 220 245 243 240 245 249 245 25 263 232 222 231 225 209 201 203 189 171 164 146 132 139 138 141 157 163 165 161 148 137 121 121 101 88 56
209 215 210 173 240 250 259 264 186 205 254 253 230 241 248 166 236 252 236 211 227 216 191 187 178 159 147 152 141 146 157 156 161 162 155 134 129 116 99 89 88 85 92 92
185 203 211 227 243 264 242 253 125 229 251 258 232 247 253 227 233 252 229 228 218 209 186 147 157 165 173 151 143 155 150 165 137 114 107 101 107 113 119 102 69 118 103 95
196 193 207 223 226 252 240 128 212 243 247 241 225 229 229 228 238 246 237 219 183 173 158 165 157 164 152 147 151 152 163 136 124 122 117 108 112 109 114 110 79 74 103 97
234 211 210 194 207 239 212 202 218 240 252 249 231 236 226 233 239 245 233 194 193 183 177 174 163 153 152 152 157 154 157 142 130 117 118 120 113 109 91 99 99 88 84 100
251 228 236 255 253 256 250 282 291 327 285 310 310 274 223 234 239 241 196 186 178 171 172 163 150 154 155 152 136 132 150 135 126 121 122 126 108 98 87 84 76 95 71 72
255 308 238 248 260 320 267 56 3 337 311 300 276 251 272 270 239 206 191 188 185 168 156 169 162 159 150 142 133 145 144 135 129 128 125 116 110 108 106 104 124 105 138 137
32 330 247 244 26 306 276 319 323 341 317 323 295 292 271 243 265 189 195 184 170 164 155 151 144 140 140 137 135 139 139 141 138 132 136 134 130 128 119 116 110 102 103 103